Change the Weather History Date:

Thursday, March 24, 2011

  Actual Average Record
Temperature  
Mean Temperature 78 °F -  
Max Temperature 86 °F 85 °F 88 °F (2013)
Min Temperature 70 °F 76 °F 71 °F (2011)
Cooling Degree Days 13    
Growing Degree Days 28 (Base 50)    
Moisture  
Dew Point 62 °F    
Average Humidity 57    
Maximum Humidity 73    
Minimum Humidity 40    
Precipitation  
Precipitation 0.00 in - - ()
Sea Level Pressure  
Sea Level Pressure 29.95 in    
Wind  
Wind Speed 7 mph ()    
Max Wind Speed 22 mph    
Max Gust Speed -    
Visibility 5.6 miles    
Events      
Averages and records for this station are not official NWS values.
T = Trace of Precipitation, MM = Missing Value Source: Averaged Metar Reports

Daily Weather History Graph

Daily Weather History Graph

Search for Another Location

Airport or City:

Trip Planner

Search our weather history database for the weather conditions in past years. The results will help you decide how hot, cold, wet, or windy it might be!

Date:

Astronomy

Mar. 24, 2011 Rise Set
Actual Time 6:08 AM EST 6:18 PM EST
Civil Twilight 5:46 AM EST 6:40 PM EST
Nautical Twilight 5:21 AM EST 7:05 PM EST
Astronomical Twilight 4:55 AM EST 7:31 PM EST
Moon 11:39 PM EST (3/24) 10:01 AM EST (3/24)
Length of Visible Light 12h 54m
Length of Day
12h 10m
Waning Gibbous, 69% of the Moon is Illuminated
Mar 24
Waning Gibbous
Mar 26
Last Quarter
Apr 3
New
Apr 11
First Quarter
Apr 17
Full

Hourly Weather History & Observations

Time (EST) Temp. Heat Index Dew Point Humidity Pressure Visibility Wind Dir Wind Speed Gust Speed Precip Events Conditions
12:00 AM 73.4 °F - 62.6 °F 69% 29.95 in 6.2 mi NW 3.5 mph - N/A   Partly Cloudy
1:00 AM 73 °F - 64 °F 65% 29.95 in 3 mi NW 1.2 mph - -   Haze
1:00 AM 73.4 °F - 64.4 °F 73% 29.95 in 6.2 mi Variable 1.2 mph - N/A   Partly Cloudy
4:00 AM 73.4 °F - 60.8 °F 65% 29.92 in 6.2 mi Variable 2.3 mph - N/A   Partly Cloudy
6:00 AM 71.6 °F - 59.0 °F 64% 29.95 in 6.2 mi Variable 2.3 mph - N/A   Partly Cloudy
7:00 AM 73 °F - 59 °F 53% 29.98 in 4 mi North 1.2 mph - -   Haze
7:00 AM 73.4 °F - 59.0 °F 61% 29.98 in 6.2 mi Variable 1.2 mph - N/A   Partly Cloudy
8:00 AM 77.0 °F - 59.0 °F 54% 29.98 in 6.2 mi Variable 1.2 mph - N/A   Partly Cloudy
9:00 AM 78.8 °F - 59.0 °F 51% 30.01 in 6.2 mi SE 8.1 mph - N/A   Partly Cloudy
10:00 AM 80 °F - 61 °F 42% 30.01 in 4 mi SE 11.5 mph - -   Haze
10:00 AM 80.6 °F 81.5 °F 60.8 °F 51% 29.98 in 6.2 mi SE 16.1 mph - N/A   Partly Cloudy
11:00 AM 80.6 °F 81.5 °F 60.8 °F 51% 29.98 in 6.2 mi SE 16.1 mph - N/A   Partly Cloudy
12:00 PM 80.6 °F 81.8 °F 62.6 °F 54% 29.95 in 6.2 mi SE 17.3 mph - N/A   Partly Cloudy
1:00 PM 83 °F - 63 °F 40% 29.95 in 4 mi SSE 13.8 mph - -   Haze
1:00 PM 82.4 °F 83.4 °F 62.6 °F 51% 29.95 in 6.2 mi SSE 13.8 mph - N/A   Partly Cloudy
2:00 PM 80.6 °F 81.8 °F 62.6 °F 54% 29.92 in 6.2 mi SE 17.3 mph - N/A   Partly Cloudy
3:00 PM 80.6 °F 82.3 °F 64.4 °F 58% 29.89 in 6.2 mi SE 18.4 mph - N/A   Partly Cloudy
4:00 PM 79 °F - 64 °F 51% 29.90 in 3 mi SE 18.4 mph - -   Mostly Cloudy
4:00 PM 78.8 °F - 64.4 °F 61% 29.89 in 6.2 mi SE 18.4 mph - N/A   Scattered Clouds
5:00 PM 80.6 °F 82.3 °F 64.4 °F 58% 29.89 in 6.2 mi ESE 21.9 mph - N/A   Scattered Clouds
6:00 PM 78.8 °F - 60.8 °F 54% 29.89 in 6.2 mi ESE 16.1 mph - N/A   Mostly Cloudy
7:00 PM 78 °F - 60 °F 43% 29.92 in 4 mi ESE 13.8 mph - -   Haze
7:00 PM 78.8 °F - 64.4 °F 61% 29.98 in 6.2 mi NNE 6.9 mph - N/A   Partly Cloudy
8:00 PM 77.0 °F - 62.6 °F 61% 29.92 in 6.2 mi East 8.1 mph - N/A   Scattered Clouds
9:00 PM 77.0 °F - 62.6 °F 61% 29.95 in 6.2 mi East 4.6 mph - N/A   Partly Cloudy
10:00 PM 76 °F - 63 °F 55% 29.97 in 4 mi Calm Calm - -   Scattered Clouds
10:00 PM 75.2 °F - 62.6 °F 65% 29.95 in 6.2 mi Calm Calm - N/A   Partly Cloudy
11:00 PM 75.2 °F - 59.0 °F 57% 29.98 in 6.2 mi ESE 3.5 mph - N/A   Partly Cloudy